This demonstration page uses our WeatherBlox Daily Observations layout. Learn more.

Left ArrowRight Arrow

44.8408, -93.29828

Hourly Observations for November 30, 2020

Temp ( °F °C ) Dew Point ( °F °C ) Humidity (%) Winds ( mph kmh ) Pressure ( in mb ) Visibility ( mi km ) Precip ( " mm )
12:53 am 00:53 Cloudy 22 -5.6 13 -10.6 68 68 NNE 14 22 30.32 1027 10 16 0.00 0.00
1:53 am 01:53 Cloudy 22 -5.6 12 -11.1 66 66 N 12 19 30.32 1027 10 16 0.00 0.00
2:53 am 02:53 Cloudy 21 -6.1 12 -11.1 68 68 NNE 10 17 30.33 1027 10 16 0.00 0.00
3:53 am 03:53 Cloudy 20 -6.7 11 -11.7 68 68 NNE 12 19 30.32 1027 10 16 0.00 0.00
4:53 am 04:53 Cloudy 20 -6.7 11 -11.7 68 68 N 9 15 30.32 1027 10 16 0.00 0.00
5:53 am 05:53 Cloudy 20 -6.7 11 -11.7 68 68 N 12 19 30.32 1027 10 16 0.00 0.00
6:53 am 06:53 Cloudy 19 -7.2 11 -11.7 71 71 N 8 13 30.32 1027 10 16 0.00 0.00
7:53 am 07:53 Mostly Cloudy 18 -7.8 11 -11.7 74 74 VRB 3 6 30.31 1026 10 16 0.00 0.00
8:53 am 08:53 Mostly Cloudy 21 -6.1 12 -11.1 68 68 NNE 5 7 30.31 1026 10 16 0.00 0.00
9:24 am 09:24 Partly Cloudy 21 -6.1 12 -11.1 68 68 Calm 30.34 1027 10 16 0.00 0.00
9:35 am 09:35 Mostly Cloudy 20 -6.7 12 -11.1 71 71 VRB 3 6 30.35 1028 10 16 0.00 0.00
9:53 am 09:53 Mostly Cloudy 20 -6.7 12 -11.1 71 71 NW 3 6 30.32 1027 10 16 0.00 0.00
10:36 am 10:36 Partly Cloudy 23 -5 12 -11.1 63 63 NNE 3 6 30.33 1027 10 16 0.00 0.00
10:53 am 10:53 Mostly Sunny 23 -5 13 -10.6 65 65 NW 5 7 30.30 1026 10 16 0.00 0.00
11:53 am 11:53 Sunny 25 -3.9 13 -10.6 60 60 Calm 30.26 1025 10 16 0.00 0.00
12:53 pm 12:53 Sunny 27 -2.8 13 -10.6 55 55 NNW 3 6 30.23 1024 10 16 0.00 0.00
1:53 pm 13:53 Sunny 28 -2.2 13 -10.6 53 53 N 5 7 30.21 1023 10 16 0.00 0.00
2:53 pm 14:53 Sunny 29 -1.7 12 -11.1 49 49 N 5 7 30.19 1022 10 16 0.00 0.00
3:53 pm 15:53 Sunny 28 -2.2 12 -11.1 51 51 NNW 5 7 30.19 1022 10 16 0.00 0.00
4:53 pm 16:53 Mostly Clear 26 -3.3 12 -11.1 55 55 Calm 30.18 1022 10 16 0.00 0.00
5:53 pm 17:53 Clear 25 -3.9 12 -11.1 58 58 VRB 3 6 30.18 1022 10 16 0.00 0.00
6:53 pm 18:53 Clear 25 -3.9 12 -11.1 58 58 E 5 7 30.18 1022 10 16 0.00 0.00
7:53 pm 19:53 Clear 21 -6.1 14 -10 74 74 SE 6 9 30.16 1021 10 16 0.00 0.00
8:53 pm 20:53 Clear 21 -6.1 13 -10.6 71 71 ESE 8 13 30.16 1021 10 16 0.00 0.00
9:53 pm 21:53 Clear 22 -5.6 14 -10 71 71 SE 3 6 30.16 1021 10 16 0.00 0.00
10:53 pm 22:53 Mostly Clear 20 -6.7 13 -10.6 74 74 SSE 3 6 30.14 1021 10 16 0.00 0.00
11:53 pm 23:53 Mostly Clear 19 -7.2 13 -10.6 77 77 SE 3 6 30.14 1021 10 16 0.00 0.00

Powered by AerisWeather